Location: Unspecified
(48.5539°N, 71.6350°W)
Time: 11:29:31
(UTC-04:00)

ISS - Pass Details

Date: 28 January 2019
Orbit: 411 x 421 km, 51.6° (Epoch: 21 October)

Event Time Altitude Azimuth Distance (km) Brightness Sun altitude
Rises 17:49:06 0° 259° (WSW) 2,411 2.3 -11.8°
Reaches altitude 10° 17:51:13 10° 262° (W) 1,547 0.6 -12.1°
Maximum altitude 17:54:41 65° 344° (NNW) 486 -3.5 -12.7°
Enters shadow 17:56:45 22° 63° (ENE) 1,001 -2.4 -13.0°
Drops below altitude 10° 17:58:10 10° 68° (ENE) 1,555 - -13.2°
Sets 18:00:18 0° 72° (ENE) 2,426 - -13.6°
